Regional Weather Roundup
Issued by NWS

Home | Current Version | Previous Version | Text Only | Print | Product List | Glossary Off
Versions: 1 2 3 4 5 6 7 8 9 10 11 12 13 14 15 16 17 18 19 20 21 22 23 24 25 26 27

000
ASUS45 KBOU 192207
RWRCO

WEATHER ROUNDUP FOR COLORADO
NATIONAL WEATHER SERVICE DENVER/BOULDER CO
400 PM MDT WED JUL 19 2017

NOTE: "FAIR" INDICATES FEW OR NO CLOUDS BELOW 12000 FEET WITH NO
SIGNIFICANT WEATHER AND/OR OBSTRUCTIONS TO VISIBILITY.

COZ001>005-013-030-031-192300-
...NORTHWEST COLORADO...

CITY           SKY/WX    TMP DP  RH WIND       PRES   REMARKS
CRAIG          PTSUNNY   83  46  27 SW15G24   30.21R THUNDER
HAYDEN         FAIR     N/A N/A N/A SE16      30.23F THUNDER
MEEKER         TSTM      73  63  70 NW6       30.21R
RABBIT EARS PA CLOUDY    63  43  48 NW3       30.61F
STEAMBOAT SPGS FAIR      77  52  40 E12G18    30.27R
WALDEN         FAIR      75  41  29 S10       30.37S
$$

COZ006>008-011-192300-
...WEST CENTRAL VALLEYS...

CITY           SKY/WX    TMP DP  RH WIND       PRES   REMARKS
GRAND JUNCTION FAIR      95  49  20 VRB5      30.07F
MONTROSE       FAIR      79  56  45 S10       30.19F
EAGLE          NOT AVBL
RIFLE          FAIR      92  47  21 S12       30.13F
DELTA          FAIR      91  50  25 S20       30.12S
NUCLA          NOT AVBL
$$

COZ017>023-064>068-192300-
...SOUTHWEST COLORADO...

CITY           SKY/WX    TMP DP  RH WIND       PRES   REMARKS
DURANGO        FAIR      87  44  22 S8        30.25F
CORTEZ         FAIR      92  46  20 SW10      30.19F
PAGOSA SPRINGS FAIR      85  39  19 W9        30.35F THUNDER
TELLURIDE      FAIR      67  51  56 CALM      30.51F
WOLF CREEK PAS FAIR      63  41  45 S9G23     30.76F
$$

COZ009-010-012-014-032>034-037-058>063-192300-
...CENTRAL COLORADO...

CITY           SKY/WX    TMP DP  RH WIND       PRES   REMARKS
ASPEN          PTSUNNY   74  49  41 N13G24    30.38R
BUENA VISTA    CLOUDY    68  49  50 NW16G35   30.38R
COPPER MTN     TSTM      54  45  71 S18G24    30.78R
BERTHOUD PASS    N/A     50  36  57 SW6       30.81R THUNDER
COTTONWOOD PAS TSTM      63  43  48 SW14      30.55S
GUNNISON       FAIR      83  49  30 N13       30.32F
KREMMLING      PTSUNNY   81  43  26 SW14G20   30.34R
LEADVILLE      LGT RAIN  54  48  80 W7G20     30.56F
SALIDA         FAIR      88  46  23 SW15      30.37S
SUNLIGHT       PTSUNNY   57  48  72 E6        30.65F
WILKERSON PASS FAIR      72  37  28 N7        30.68F THUNDER
$$

COZ069>075-192300-
...SAN LUIS VALLEY/SANGRE DE CRISTO MOUNTAINS...

CITY           SKY/WX    TMP DP  RH WIND       PRES   REMARKS
ALAMOSA        FAIR      83  46  27 VRB7      30.33F
DEL NORTE      FAIR      82  53  36 E13       30.37F
LA VETA PASS   NOT AVBL
SAGUACHE         N/A    N/A N/A N/A MISG        N/A
$$

COZ035-036-038>040-192300-
...NORTHERN COLORADO FRONT RANGE...

CITY           SKY/WX    TMP DP  RH WIND       PRES   REMARKS
DENVER INTL AP PTSUNNY   99  38  12 NE7       30.08F
DMNS CITY PARK   N/A     95  37  13 NE3G13    30.08S
AURORA         NOT AVBL
FRONT RANGE AP FAIR      99  36  11 N9        30.10F
ERIE MUNI ARPT FAIR      97  36  12 NE7       30.07S
BOULDER MUN AP FAIR      95  41  15 NE3       30.08S
CENTENNIAL     PTSUNNY   95  38  13 N9        30.13F
BROOMFIELD     FAIR      93  37  14 E5        30.13S
FORT COLLINS   FAIR      95  50  21 SW8       30.07S
LONGMONT       FAIR     102  42  13 NE6       30.08S
$$

COZ041-046-047-076>085-087-088-192300-
...PIKES PEAK/PALMER DIVIDE AND SOUTHERN FOOTHILLS...

CITY           SKY/WX    TMP DP  RH WIND       PRES   REMARKS
COLO. SPRINGS  FAIR      92  50  23 SE13      30.19F
A. F. ACADEMY  NOT AVBL
SCHRIEVER AFB  NOT AVBL
CHEYENNE MTN   NOT AVBL
ELLICOTT       FAIR     N/A N/A N/A SW12G20   30.17F
FALCON           N/A     88  44  21 SE7G21    30.26F
FORT CARSON    NOT AVBL
LIMON          FAIR      93  51  23 S17       30.12F
MONUMENT HILL  FAIR      86  48  26 S15G21    30.27S
CANON CITY     SUNNY     99  54  22 E13       30.10F
WALSENBURG     FAIR      97  45  16 S8        30.17F
TRINIDAD       FAIR      96  42  15 S18G28    30.15F
$$

COZ042>045-048>051-090-091-192300-
...NORTHEAST COLORADO...

CITY           SKY/WX    TMP DP  RH WIND       PRES   REMARKS
GREELEY ARPT   FAIR     100  45  15 CALM      30.03F
AKRON          FAIR     102  48  16 S15G29    30.03F
BURLINGTON     FAIR      98  57  25 S17G25    30.06F
WRAY           NOT AVBL
YUMA           FAIR      95  61  31 S18       30.01F
STERLING       FAIR     104  52  17 CALM      29.95F
HOLYOKE        FAIR      99  57  25 S10G20    29.98F
FORT MORGAN    FAIR     103  44  13 NW5       30.02F
$$

COZ086-089-092>099-192300-
...SOUTHEAST COLORADO...

CITY           SKY/WX    TMP DP  RH WIND       PRES   REMARKS
PUEBLO         FAIR     103  45  14 S10       30.03F
LA JUNTA       FAIR     100  54  21 S17G24    30.04F
LAMAR          FAIR      99  53  21 S17       30.00F
SPRINGFIELD      N/A     93  53  25 S14G29    30.10F
$$




USA.gov is the U.S. government's official web portal to all federal, state and local government web resources and services.